User: anonymous   Login
Location: Unspecified
(0.0000°N, 0.0000°E)
Time: 23:30:40
(UTC+00:00)
Language:

Kosmos-2181 - Orbit

View from above orbital plane
View from above orbital plane
View from above satellite
View from above satellite

Ground track
Ground track

The orbit data is extracted from the following two-line orbital elements,

1 21902U 92012A   18142.60930684 +.00000022 +00000-0 +77669-5 0  9994
2 21902 082.9413 321.7543 0028153 349.4806 075.6072 13.72374518312016
Epoch (UTC): 22 May 2018 14:37:24
Eccentricity: 0.0028153
inclination: 82.9413°
perigee height: 970 km
apogee height: 1012 km
right ascension of ascending node: 321.7543°
argument of perigee: 349.4806°
revolutions per day: 13.72374518
mean anomaly at epoch: 75.6072°
orbit number at epoch: 31201

The dashed part of the orbit path shows where the satellite is in the earth's shadow,  

DLR